Regional Weather Roundup
Issued by NWS

Home | Current Version | Previous Version | Graphics & Text | Print | Product List | Glossary On
Versions: 1 2 3 4 5 6 7 8 9 10 11 12 13 14 15 16 17 18 19 20 21 22 23 24 25 26 27 28 29 30 31 32 33 34 35 36 37 38 39 40 41 42 43 44 45 46 47 48 49 50
000
ASUS44 KMEG 120010
RWRTN
TENNESSEE HOURLY STATE WEATHER ROUNDUP
NATIONAL WEATHER SERVICE MEMPHIS TN
600 PM CST MON DEC 11 2017

TNZ002-004-019-021-049-052-054-088>092-120100-
WEST TENNESSEE

CITY           SKY/WX    TMP DP  RH WIND       PRES   REMARKS
MEMPHIS INTL   CLEAR     59  33  37 SW12      29.91F
NWS MEMPHIS      N/A     59 N/A N/A MISG        N/A
JACKSON        CLEAR     58  29  33 SW10      29.88S
DYERSBURG      CLEAR     60  31  33 SW13      29.87R
SOMERVILLE     CLEAR     57  34  41 S12       29.89F
COVINGTON      CLEAR     57  32  38 SW12      29.88S
UNION CITY     CLEAR     57  30  35 SW8G16    29.85R
BOLIVAR        CLEAR     57  30  35 S8        29.89F
PARIS          CLEAR     55  28  35 SW12      29.84R
HUNTINGDON     CLEAR     59  27  29 SW9G16    29.85R
LEXINGTON      CLEAR     52  28  40 SW9       29.88S
SELMER         CLEAR     57  28  33 SW8G14    29.90S
SAVANNAH       CLEAR     55  32  41 S13       29.90S
$$

TNZ008-025-027-028-033-062-065-066-120100-
NORTH MIDDLE TENNESSEE

CITY           SKY/WX    TMP DP  RH WIND       PRES   REMARKS
NASHVILLE      MOCLDY    56  29  35 S10G22    29.86R
PORTLAND       CLEAR     54  32  43 S13G20    29.82R
CLARKSVILLE    MOCLDY    56  28  34 SW9       29.82S
SMYRNA         MOCLDY    54  31  41 S10       29.86F
COOKEVILLE     CLEAR     52  30  43 S13G18    29.87F
GALLATIN       CLEAR     55  30  38 SW6       29.88R
CROSSVILLE     CLEAR     48  28  46 S10       29.89F
$$

TNZ061-075-076-078-094-096-097-120100-
SOUTH MIDDLE TENNESSEE

CITY           SKY/WX    TMP DP  RH WIND       PRES   REMARKS
FAYETTEVILLE   CLEAR     52  32  46 S10       29.93S
TULLAHOMA      CLEAR     50  30  46 S9        29.90F
WINCHESTER     CLEAR     48  30  49 S6        29.94S
MCMINNVILLE    CLEAR     52  30  43 S10       29.89F
COLUMBIA       PTCLDY    54  30  40 S17G24    29.85F
SHELBYVILLE    CLEAR     48  32  53 S9        29.89F
$$

TNZ017-018-042-046-047-120100-
NORTHEAST TENNESSEE

CITY           SKY/WX    TMP DP  RH WIND       PRES   REMARKS
TRI CITIES     CLEAR     39  29  67 CALM      29.90F
ELIZABETHTON   CLEAR     36  30  80 CALM      29.92S
$$

TNZ012-013-036-069-073-074-120100-
CENTRAL EAST TENNESSEE

CITY           SKY/WX    TMP DP  RH WIND       PRES   REMARKS
KNOXVILLE      CLEAR     46  34  62 SW10      29.90F
OAK RIDGE      CLEAR     50  32  50 VRB5      29.92F
DOWNTOWN KNOXV   N/A     50  30  46 W8        29.91F
GATLINBURG     CLEAR     41  30  65 CALM      29.91S
MORRISTOWN     CLEAR     46  28  49 S5        29.89F
JACKSBORO      CLEAR     46  30  53 S5        29.90F
$$

TNZ083-085-099-120100-
SOUTHEAST TENNESSEE

CITY           SKY/WX    TMP DP  RH WIND       PRES   REMARKS
CHATTANOOGA    PTCLDY    52  33  48 S10       29.95F
DAYTON         CLOUDY    48  37  66 S6        29.93S
$$

SKY/WX REPORTED AS FAIR MEANS FEW OR NO CLOUDS BELOW
12 THOUSAND FEET.





USA.gov is the U.S. government's official web portal to all federal, state and local government web resources and services.